Weather History for K3I2 - September, 2014

Change the Weather History Date:

Wednesday, September 24, 2014

  Actual Average (KHTS) Record (KHTS)
Temperature  
Mean Temperature 60 °F 64 °F  
Max Temperature 78 °F 76 °F 94 °F (1941)
Min Temperature 41 °F 53 °F 31 °F (1983)
Degree Days  
Heating Degree Days 6 3  
Month to date heating degree days 29  
Since 1 July heating degree days 31  
Cooling Degree Days 0 3  
Month to date cooling degree days 121  
Year to date cooling degree days 1098  
Growing Degree Days 10 (Base 50)    
Moisture  
Dew Point 45 °F    
Average Humidity 70    
Maximum Humidity 94    
Minimum Humidity 21    
Precipitation  
Precipitation 0.00 in 0.09 in 1.39 in (1986)
Month to date precipitation 2.26  
Year to date precipitation 32.51  
Snow  
Snow 0.00 in - - ()
Month to date snowfall  
Since 1 September snowfall  
Snow Depth -    
Sea Level Pressure  
Sea Level Pressure 30.36 in    
Wind  
Wind Speed 1 mph (East)    
Max Wind Speed 7 mph    
Max Gust Speed -    
Visibility 10 miles    
Events      
T = Trace of Precipitation, MM = Missing Value Source: NWS Daily Summary

Daily Weather History Graph

Daily Weather History Graph

Search for Another Location

Airport or City:

Trip Planner

Search our weather history database for the weather conditions in past years. The results will help you decide how hot, cold, wet, or windy it might be!

Date:

Astronomy

Sep. 24, 2014 Rise Set
Actual Time 7:17 AM EDT 7:22 PM EDT
Civil Twilight 6:51 AM EDT 7:48 PM EDT
Nautical Twilight 6:20 AM EDT 8:19 PM EDT
Astronomical Twilight 5:48 AM EDT 8:51 PM EDT
Moon 7:36 AM EDT (9/24) 7:32 PM EDT (9/24)
Length of Visible Light 12h 57m
Length of Day
12h 04m
New Moon, 0% of the Moon is Illuminated
Sep 24
New Moon
Oct 1
First Quarter
Oct 8
Full
Oct 15
Last Quarter
Oct 23
New

Hourly Weather History & Observations

Time (EDT) Temp. Dew Point Humidity Pressure Visibility Wind Dir Wind Speed Gust Speed Precip Events Conditions
12:15 AM 50.0 °F 46.4 °F 87% 30.34 in 10.0 mi Calm Calm - N/A   Clear
12:35 AM 50.0 °F 46.4 °F 87% 30.34 in 10.0 mi Calm Calm - N/A   Clear
12:55 AM 48.2 °F 46.4 °F 93% 30.34 in 10.0 mi Calm Calm - N/A   Clear
1:15 AM 46.4 °F 44.6 °F 93% 30.34 in 10.0 mi Calm Calm - N/A   Clear
1:35 AM 48.2 °F 46.4 °F 93% 30.34 in 10.0 mi Calm Calm - N/A   Clear
1:55 AM 46.4 °F 44.6 °F 93% 30.34 in 10.0 mi Calm Calm - N/A   Clear
2:15 AM 46.4 °F 44.6 °F 93% 30.34 in 10.0 mi Calm Calm - N/A   Clear
2:35 AM 46.4 °F 44.6 °F 93% 30.34 in 10.0 mi Calm Calm - N/A   Clear
2:55 AM 46.4 °F 44.6 °F 93% 30.34 in 10.0 mi Calm Calm - N/A   Clear
3:15 AM 46.4 °F 44.6 °F 93% 30.34 in 10.0 mi Calm Calm - N/A   Clear
3:35 AM 44.6 °F 42.8 °F 93% 30.35 in 10.0 mi Calm Calm - N/A   Clear
3:55 AM 44.6 °F 42.8 °F 93% 30.35 in 10.0 mi Calm Calm - N/A   Clear
4:15 AM 44.6 °F 42.8 °F 93% 30.35 in 10.0 mi Calm Calm - N/A   Clear
4:35 AM 44.6 °F 42.8 °F 93% 30.35 in 10.0 mi Calm Calm - N/A   Clear
4:55 AM 44.6 °F 42.8 °F 93% 30.35 in 10.0 mi Calm Calm - N/A   Clear
5:15 AM 42.8 °F 41.0 °F 93% 30.35 in 10.0 mi Calm Calm - N/A   Clear
5:35 AM 44.6 °F 42.8 °F 93% 30.35 in 10.0 mi Calm Calm - N/A   Clear
5:55 AM 41.0 °F 39.2 °F 93% 30.32 in 3.0 mi Calm Calm - N/A   Overcast
6:15 AM 42.8 °F 41.0 °F 93% 30.36 in 10.0 mi Calm Calm - N/A   Clear
6:35 AM 42.8 °F 41.0 °F 93% 30.36 in 10.0 mi Calm Calm - N/A   Clear
6:55 AM 42.8 °F 41.0 °F 93% 30.37 in 10.0 mi Calm Calm - N/A   Clear
7:15 AM 42.8 °F 41.0 °F 93% 30.38 in 10.0 mi Calm Calm - N/A   Clear
7:35 AM 42.8 °F 41.0 °F 93% 30.38 in 10.0 mi Calm Calm - N/A   Clear
7:55 AM 42.8 °F 41.0 °F 93% 30.38 in 7.0 mi Calm Calm - N/A   Clear
8:15 AM 44.6 °F 42.8 °F 93% 30.39 in 10.0 mi Calm Calm - N/A   Clear
8:35 AM 46.4 °F 44.6 °F 93% 30.39 in 10.0 mi Calm Calm - N/A   Clear
8:55 AM 53.6 °F 48.2 °F 82% 30.40 in 10.0 mi Calm Calm - N/A   Clear
9:15 AM 55.4 °F 50.0 °F 82% 30.40 in 10.0 mi Calm Calm - N/A   Clear
9:35 AM 59.0 °F 50.0 °F 72% 30.41 in 10.0 mi ENE 3.5 mph - N/A   Clear
9:55 AM 60.8 °F 50.0 °F 68% 30.41 in 10.0 mi ENE 3.5 mph - N/A   Clear
10:15 AM 62.6 °F 50.0 °F 63% 30.41 in 10.0 mi Calm Calm - N/A   Clear
10:35 AM 66.2 °F 50.0 °F 56% 30.41 in 10.0 mi Calm Calm - N/A   Clear
10:55 AM 68.0 °F 46.4 °F 46% 30.41 in 10.0 mi ESE 3.5 mph - N/A   Clear
11:15 AM 69.8 °F 46.4 °F 43% 30.40 in 10.0 mi ENE 5.8 mph - N/A   Clear
11:35 AM 71.6 °F 44.6 °F 38% 30.41 in 10.0 mi Calm Calm - N/A   Clear
11:55 AM 71.6 °F 42.8 °F 35% 30.40 in 10.0 mi SE 5.8 mph - N/A   Clear
12:15 PM 69.8 °F 42.8 °F 38% 30.40 in 10.0 mi East 5.8 mph - N/A   Clear
12:35 PM 71.6 °F 44.6 °F 38% 30.39 in 10.0 mi ENE 3.5 mph - N/A   Clear
12:55 PM 73.4 °F 41.0 °F 31% 30.39 in 10.0 mi ESE 5.8 mph - N/A   Clear
1:15 PM 73.4 °F 37.4 °F 27% 30.39 in 10.0 mi ESE 4.6 mph - N/A   Clear
1:35 PM 71.6 °F 37.4 °F 29% 30.38 in 10.0 mi East 3.5 mph - N/A   Clear
1:55 PM 71.6 °F 39.2 °F 31% 30.38 in 10.0 mi East 6.9 mph - N/A   Clear
2:15 PM 71.6 °F 41.0 °F 33% 30.37 in 10.0 mi East 4.6 mph - N/A   Clear
2:35 PM 73.4 °F 41.0 °F 31% 30.37 in 10.0 mi East 3.5 mph - N/A   Clear
2:55 PM 77.0 °F 41.0 °F 28% 30.36 in 10.0 mi SSW 3.5 mph - N/A   Clear
3:15 PM 77.0 °F 37.4 °F 24% 30.35 in 10.0 mi ESE 5.8 mph - N/A   Clear
3:35 PM 77.0 °F 35.6 °F 22% 30.35 in 10.0 mi East 6.9 mph - N/A   Clear
3:55 PM 78.8 °F 35.6 °F 21% 30.34 in 10.0 mi East 6.9 mph - N/A   Clear
4:15 PM 78.8 °F 37.4 °F 23% 30.33 in 10.0 mi ESE 3.5 mph - N/A   Clear
4:35 PM 78.8 °F 41.0 °F 26% 30.33 in 10.0 mi East 6.9 mph - N/A   Clear
4:55 PM 78.8 °F 37.4 °F 23% 30.32 in 10.0 mi ENE 6.9 mph - N/A   Clear
5:15 PM 77.0 °F 39.2 °F 26% 30.32 in 10.0 mi East 5.8 mph - N/A   Clear
5:35 PM 77.0 °F 41.0 °F 28% 30.32 in 10.0 mi Calm Calm - N/A   Clear
5:55 PM 71.6 °F 50.0 °F 46% 30.32 in 10.0 mi Calm Calm - N/A   Clear
6:15 PM 68.0 °F 51.8 °F 56% 30.32 in 10.0 mi Calm Calm - N/A   Clear
6:35 PM 66.2 °F 53.6 °F 64% 30.32 in 10.0 mi Calm Calm - N/A   Clear
6:55 PM 64.4 °F 51.8 °F 64% 30.33 in 10.0 mi Calm Calm - N/A   Clear
7:15 PM 62.6 °F 53.6 °F 72% 30.33 in 10.0 mi Calm Calm - N/A   Clear
7:35 PM 60.8 °F 51.8 °F 72% 30.33 in 10.0 mi Calm Calm - N/A   Clear
7:55 PM 59.0 °F 51.8 °F 77% 30.33 in 10.0 mi Calm Calm - N/A   Clear
8:15 PM 59.0 °F 51.8 °F 77% 30.33 in 10.0 mi Calm Calm - N/A   Clear
8:35 PM 55.4 °F 51.8 °F 88% 30.33 in 10.0 mi Calm Calm - N/A   Clear
8:55 PM 55.4 °F 51.8 °F 88% 30.33 in 10.0 mi Calm Calm - N/A   Clear
9:15 PM 55.4 °F 51.8 °F 88% 30.33 in 10.0 mi Calm Calm - N/A   Clear
9:35 PM 53.6 °F 51.8 °F 94% 30.33 in 10.0 mi Calm Calm - N/A   Clear
9:55 PM 53.6 °F 51.8 °F 94% 30.33 in 10.0 mi Calm Calm - N/A   Clear
10:15 PM 51.8 °F 50.0 °F 94% 30.33 in 10.0 mi Calm Calm - N/A   Clear
10:35 PM 51.8 °F 50.0 °F 94% 30.33 in 10.0 mi Calm Calm - N/A   Clear
10:55 PM 51.8 °F 50.0 °F 94% 30.33 in 10.0 mi Calm Calm - N/A   Clear
11:15 PM 51.8 °F 50.0 °F 94% 30.33 in 10.0 mi Calm Calm - N/A   Clear
11:35 PM 51.8 °F 50.0 °F 94% 30.33 in 10.0 mi Calm Calm - N/A   Clear
11:55 PM 51.8 °F 50.0 °F 94% 30.33 in 10.0 mi Calm Calm - N/A   Clear